Location: Kawakawa
(35.3830°S, 174.0670°E)
Time: 00:16:08
(UTC+13:00)

Altair - Pass Details

Date: 07 December 2019
Orbit: 1502 x 1682 km, 47.2° (Epoch: 21 January)

Event Time Altitude Azimuth Distance (km) Brightness Sun altitude
Rises 10:23:39 0° 319° (NW) 4,744 9.9 50.8°
Reaches altitude 10° 10:26:41 10° 321° (NW) 3,788 9.5 51.4°
Maximum altitude 10:36:17 69° 42° (NE) 1,736 9.4 53.3°
Drops below altitude 10° 10:46:17 10° 122° (ESE) 3,941 10.2 55.3°
Sets 10:49:30 0° 123° (ESE) 4,944 10.5 56.0°
